www.pogodaiklimat.ru

Погода и климат >> Архив погоды >> Россия >> Хабаровский край >> Бичевая


ПОГОДА в Бичевой

  • Прогноз погоды в Бичевой
  • Монитор погоды в Бичевой

АРХИВ ПОГОДЫ в Бичевой

Время (UTC), дата Ветер
(напр.,м/с)
 
Видим.   Явления Облачность Т
(С)
Тd
(С)
f
(%)
Тe
(С)
Тes
(С)
Комфортность P
(гПа)
Po
(гПа)
Тmin
(С)
Tmax
(С)
R
(мм)
R24
(мм)
S
(см)
12 13.05 СВ 1 50 км ясно +17.9 +2.6 36 +19 +19 1009.6 997.3
15 13.05 С 1 50 км 10 баллов +13.6 +5.2 57 +14 +14 1011.2 998.7
18 13.05 штиль 0 50 км 3/0 600 м
[]
+12.3 +4.5 59 +12 +12 1012.6 1000.0
21 13.05 Ю 2 50 км 10/0
[Ac cast Cs]
+13.2 +6.4 63 +13 +14 1013.0 1000.6 +9.7
00 14.05 Ю 3 50 км 9/0
[Cs]
+19.6 +6.3 42 +21 +21 комфорт 1013.6 1001.3
03 14.05 ЮВ 1 50 км 10 баллов +22.1 +5.1 33 +22 +22 комфорт 1012.2 1000.0
06 14.05 ЮЗ 3
{10}
50 км 5/1 1000 м
[Cu hum Ci fib]
+25.6 +1.0 20 +24 +28 комфорт 1009.3 997.3
09 14.05 штиль 0 50 км 10/1 1000 м
[Sc Ac trans Cs]
+22.1 +4.1 31 +22 +23 комфорт 1008.8 996.8 +25.7
12 14.05 ЮЗ 1 50 км 10/10 600 м
[Sc]
+16.5 +8.7 60 +17 +17 1011.1 998.7
15 14.05 Ю 1 50 км 10 баллов +13.0 +9.1 77 +13 +13 1011.2 998.7
18 14.05 ЮЗ 1 50 км 10 баллов +11.0 +7.7 80 +11 +11 1011.3 998.7
21 14.05 Ю 3 50 км 3/0
[Ci fib]
+14.0 +6.8 62 +13 +14 1010.6 998.2 +8.2
00 15.05 Ю 3 50 км 9/6 600 м
[Cu Sc Ac lent]
+17.8 +5.0 43 +18 +19 1011.0 998.7
03 15.05 Ю 4 50 км 1/1 600 м
[Cu hum]
+24.0 +3.3 26 +23 +34 комфорт 1009.4 997.3
06 15.05 ЮЗ 5
{11}
50 км 8/4 600 м
[Cu med, cong Ci fib]
+24.7 +2.2 23 +24 +25 комфорт 1008.0 996.0
09 15.05 ЮЗ 2
{10}
50 км 3/0
[Ci fib]
+22.5 +2.6 27 +22 +23 комфорт 1006.8 994.7 +25.1
12 15.05 ЮВ 1 50 км 2 балла +12.7 +6.5 66 +13 +13 1008.5 996.0
15 15.05 ЮЗ 1 50 км 10/10 600 м
[Sc]
+10.4 +6.5 77 +10 +10 1008.6 996.0
18 15.05 ЮЗ 1 50 км 10/10 600 м
[Sc]
+14.2 +4.5 52 +15 +15 1008.5 996.0
21 15.05 ЮЗ 2 50 км 8/0
[Ac lent Cs]
+14.4 +5.2 54 +14 +15 1005.8 993.5 +9.7
00 16.05 Ю 5
{12}
50 км 10/0
[Ac trans Cs]
+24.8 +2.4 23 +24 +27 комфорт 1004.6 992.7
03 16.05 Ю 6-12
{15}
50 км 10/0
[Ac As]
+25.6 -3.5 14 +23 +25 комфорт 1003.1 991.2
06 16.05 ЮЗ 6-11
{14}
50 км 10/4
[Sc Ac lent Cs]
+27.5 -3.0 13 +25 +26 комфорт 1001.3 989.6
09 16.05 Ю 6-13
{18}
50 км 10/10 600 м
[Cb cap]
+21.4 +5.3 35 +22 +22 комфорт 1004.1 992.0 +28.7
12 16.05 В 2
{13}
50 км в посл. час гроза {ливн. осадки} 4/4 600 м
[Sc]
+11.2 +9.6 90 +10 +10 1007.3 994.9
15 16.05 ЮЗ 2 50 км в посл. час гроза 4 балла +11.4 +9.5 88 +10 +10 1008.6 996.0
18 16.05 ЮЗ 1 50 км 3/3 600 м
[Sc]
+11.7 +9.4 86 +12 +12 1008.6 996.0
21 16.05 З 2 10 км ливневой дождь, в посл. час гроза 10/10 600 м
[Cb calv]
+11.8 +10.1 89 +11 +11 1009.3 996.9 +10.6 5
00 17.05 Ю 3 50 км {гроза, ливн. осадки} 10/4 600 м
[Sc diur, vesp Ac trans]
+14.3 +11.2 82 +13 +16 1007.3 995.0
03 17.05 ЮЗ 4-10
{15}
50 км 10/9 600 м
[Sc Cs]
+19.7 +10.1 54 +21 +22 комфорт 1006.6 994.5
06 17.05 ЮЗ 3
{14}
50 км 10/10 600 м
[Sc]
+20.9 +10.4 51 +23 +23 комфорт 1008.2 996.0
09 17.05 Ю 3 50 км 10/0
[Ac lent Cs]
+20.7 +8.0 44 +22 +22 комфорт 1009.5 997.3 +22.0
12 17.05 Ю 3 50 км 10/0
[Ac As]
+17.0 +9.4 61 +17 +17 1009.6 997.3
15 17.05 Ю 2 50 км 8/8 1000 м
[Sc]
+16.4 +10.3 67 +17 +17 1009.7 997.3
18 17.05 Ю 4 50 км 10/3 600 м
[Sc Ac As]
+16.7 +11.6 72 +16 +16 1009.6 997.3
21 17.05 Ю 4 50 км гроза без осадков {ливн. осадки} 10/6 600 м
[Cb cap As op]
+16.1 +12.6 80 +15 +15 1008.9 996.6 +16.1 3
00 18.05 Ю 3 50 км {гроза, ливн. осадки} 10/10 600 м
[Cb cap]
+16.4 +13.6 84 +16 +16 1008.6 996.4 +14.6
03 18.05 Ю 5
{12}
50 км {ливн. осадки} 8/3 600 м
[Cu hum Ci fib]
+23.0 +12.6 52 +26 +31 жарко 1008.1 996.2
06 18.05 Ю 5 50 км {ливн. осадки} 6/4 1000 м
[Cu hum Ac trans]
+25.0 +11.5 43 +26 +29 жарко 1008.0 996.0
09 18.05 ЮЗ 4-10
{11}
50 км 10/1 600 м
[Sc Ac As]
+23.9 +10.9 44 +25 +25 комфорт 1006.7 994.7 +25.1 3
12 18.05 СЗ 2
{12}
50 км 10/10 600 м
[Sc]
+13.3 +7.5 68 +13 +13 1009.6 997.3
15 18.05 штиль 0 10 км слаб. ливневой дождь 10 баллов +11.1 +9.8 92 +10 +10 1012.6 1000.0
18 18.05 Ю 1 50 км в посл. час ливневой дождь 10 баллов +10.9 +9.7 92 +11 +11 1012.6 1000.0
21 18.05 Ю 1 50 км 10/10 600 м
[Cb cap]
+11.3 +10.0 92 +11 +11 1013.4 1000.9 +10.8 8
00 19.05 Ю 2 50 км 10 баллов +14.0 +10.4 79 +14 +14 1013.8 1001.3
03 19.05 Ю 2 50 км 10 баллов +16.9 +8.3 57 +17 +17 1013.7 1001.3
06 19.05 Ю 2 50 км 10 баллов +19.0 +5.8 42 +20 +20 1012.3 1000.0
09 19.05 штиль 0 50 км 10/5 600 м
[Sc Ac As]
+17.3 +8.7 57 +17 +17 1009.6 997.3 +19.1
12 19.05 штиль 0 50 км 7 баллов +13.1 +10.6 85 +13 +13 1008.5 996.0
15 19.05 СЗ 1 50 км 10 баллов +13.6 +11.3 86 +14 +14 1005.7 993.3
18 19.05 ЮВ 2 10 км слаб. ливневой дождь 10 баллов +13.1 +11.8 92 +12 +12 1001.7 989.3
21 19.05 Ю 1 10 км слаб. ливневой дождь 10/10 600 м
[Cb cap]
+13.3 +12.0 92 +13 +13 999.2 987.0 +12.6 7
00 20.05 Ю 3 10 км слаб. ливневой дождь 10/10 600 м
[Cb cap]
+13.9 +11.9 88 +13 +13 997.1 984.9
03 20.05 Ю 5 10 км слаб. ливневой дождь 10 баллов +15.9 +12.8 82 +15 +15 996.2 984.0
06 20.05 Ю 5-10
{10}
10 км слаб. ливневой дождь 10/10 600 м
[Cb cap]
+16.5 +13.1 80 +16 +16 993.3 981.2
09 20.05 Ю 3 50 км 10 баллов +17.1 +12.0 72 +17 +17 993.4 981.3 +17.1 11

 

Местоположение метеостанции Бичевая (Хабаровский край, Россия): широта 47.77 долгота 135.60 высота над уровнем моря 105 м.

В архиве по умолчанию представлена погода в Бичевой за последнюю неделю. Архивные данные за месяц целиком и за предыдущие месяцы, начиная с января 2011 года, Вы можете получить, выбрав интересующий диапазон дат из раскрывающегося списка и нажав кнопку "Ввод!".


*Определитесь, кто Вы:
робот инопланетянин человек

Внимание! Время в таблицах - всемирное. Для получения местного времени необходимо прибавить поправку, которая равна 10 ч.

Смотрите также архив погоды в соседних городах и на ближайших метеорологических станциях:

Погода в Оборе (Хабаровский край, Россия) (35 км)
Погода в Георгиевке (Хабаровский край, Россия) (36 км)
Погода в Гвасюгах (Хабаровский край, Россия) (39 км)
Погода в Хоре (Хабаровский край, Россия) (50 км)
Погода в Вяземском (Хабаровский край, Россия) (73 км)
Погода в Князе-Волконском (Хабаровский край, Россия) (80 км)
Погода в Хабаровске 21 км (Хабаровский край, Россия) (80 км)
Погода в Бычихе (Хабаровский край, Россия) (83 км)
Погода в Хабаровске Аэр. Большой (Хабаровский край, Россия) (83 км)
Погода в Хабаровске (Хабаровский край, Россия) (91 км)

Пояснения к столбцам:

Ветер - указаны скорость ветра в м/с - средняя за 10 мин, порывы в срок и между сроками (в фигурных скобках) и направление, откуда дует ветер: С - северный, СВ - северо-восточный, В - восточный, ЮВ - юго-восточный, Ю - южный, ЮЗ - юго-западный, З - западный, СЗ - северо-западный.
Видимость - горизонтальная дальность видимости в метрах или километрах. При видимости от 1 до 10 км при отсутствии осадков обычно наблюдается дымка, при ухудшении видимости до 1 км и менее - туман. В сухую погоду видимость может ухудшаться дымом, пылью или мглою.
Явления - указаны атмосферные явления, наблюдавшиеся в срок или в последний час перед сроком; фигурными скобками обозначены явления, наблюдавшиеся между сроками (за 1-3 часа до срока); квадратными скобками обозначены град или гололедные отложения с указанием их диаметра в мм.
Облачность - указаны через наклонную черту общая и нижняя облачность в баллах и высота нижней границы облаков в метрах; квадратными скобками обозначены формы облаков: Ci - перистые, Cs - перисто-слоистые, Cc - перисто-кучевые, Ac - высококучевые, As - высокослоистые, Sc - слоисто-кучевые, Ns - слоисто-дождевые, Cu - кучевые, Cb - кучево-дождевые. Подробнее классификацию облаков см. в Атласе облаков (PDF).
T - Температура воздуха - температура, измеренная на высоте 2 м над землей.
Td - Температура точки росы - температура, при понижении до которой содержащийся в воздухе водяной пар достигнет насыщения.
f - Относительная влажность воздуха - влажноcть воздуха, измеренная на высоте 2 м над землей.
Te - Эффективная температура - температура, которую ощущает одетый по сезону человек в тени. Характеристика душности погоды. При расчете учитывается влияние влажности воздуха и скорости ветра на теплоощущения человека.
Tes - Эффективная температура на солнце - температура, которую ощущает человек, с поправкой на солнечный нагрев. Характеристика знойности погоды. Зависит от высоты солнца над горизонтом, облачности и скорости ветра. Ночью, в пасмурную погоду, а также при ветре 12 м/с и более поправка равна нулю.
P - Атмосферное давление - приведенное к уровню моря атмосферное давление.
Po - Атмосферное давление - измеренное на уровне метеостанции атмосферное давление.
Tmin - Минимальная температура - минимум температуры воздуха на высоте 2 м над землей.
Tmax - Максимальная температура - максимум температуры воздуха на высоте 2 м над землей.
R - Количество осадков - Количество выпавших осадков за период времени, мм. При наведении курсора мыши на число - период времени, за который выпало указанное количество осадков.
R24 - Количество осадков - Количество выпавших осадков за 24 часа, мм.
S - Снежный покров - Высота снежного покрова, см. При наведении курсора мыши на число - состояние снежного покрова и степень покрытия местности в баллах.